Gunnison, CO

4:04 PM MDT on July 26, 2017 (GMT -0600)
Gunnison County

Weather History for KGUC - October, 2011

Change the Weather History Date:

Tuesday, October 18, 2011

  Actual Average Record
Temperature  
Mean Temperature 38 °F -  
Max Temperature 57 °F 55 °F 71 °F (2003)
Min Temperature 19 °F 21 °F 12 °F (1996)
Degree Days  
Heating Degree Days 27    
Moisture  
Dew Point 17 °F    
Average Humidity 50    
Maximum Humidity 86    
Minimum Humidity 14    
Precipitation  
Precipitation 0.00 in - - ()
Sea Level Pressure  
Sea Level Pressure 30.38 in    
Wind  
Wind Speed 3 mph (South)    
Max Wind Speed 15 mph    
Max Gust Speed 20 mph    
Visibility 10 miles    
Events      
Averages and records for this station are not official NWS values.
T = Trace of Precipitation, MM = Missing Value Source: NWS Daily Summary

Daily Weather History Graph

Daily Weather History Graph

Search for Another Location

Airport or City:

Trip Planner

Search our weather history database for the weather conditions in past years. The results will help you decide how hot, cold, wet, or windy it might be!

Date:

Astronomy

Oct. 18, 2011 Rise Set
Actual Time 7:19 AM MDT 6:25 PM MDT
Civil Twilight 6:52 AM MDT 6:52 PM MDT
Nautical Twilight 6:21 AM MDT 7:23 PM MDT
Astronomical Twilight 5:51 AM MDT 7:53 PM MDT
Moon 11:12 PM MDT (10/18) 1:09 PM MDT (10/18)
Length of Visible Light 11h 59m
Length of Day
11h 06m
Waning Gibbous, 64% of the Moon is Illuminated
Oct 18
Waning Gibbous
Oct 19
Last Quarter
Oct 26
New
Nov 2
First Quarter
Nov 10
Full

Hourly Weather History & Observations

Time (MDT) Temp. Windchill Dew Point Humidity Pressure Visibility Wind Dir Wind Speed Gust Speed Precip Events Conditions
12:35 AM 30.2 °F - 21.2 °F 69% 30.36 in 10.0 mi Calm Calm - N/A   Clear
1:55 AM 28.4 °F - 19.4 °F 69% 30.37 in 10.0 mi Calm Calm - N/A   Clear
2:35 AM 26.6 °F - 19.4 °F 74% 30.37 in 10.0 mi Calm Calm - N/A   Clear
2:55 AM 26.6 °F - 19.4 °F 74% 30.38 in 10.0 mi Calm Calm - N/A   Clear
3:15 AM 24.8 °F 19.1 °F 19.4 °F 80% 30.38 in 10.0 mi SE 4.6 mph - N/A   Clear
3:35 AM 23.0 °F - 17.6 °F 80% 30.38 in 10.0 mi Calm Calm - N/A   Clear
3:55 AM 26.6 °F - 19.4 °F 74% 30.37 in 10.0 mi Calm Calm - N/A   Clear
4:15 AM 24.8 °F 17.9 °F 19.4 °F 80% 30.38 in 10.0 mi ENE 5.8 mph - N/A   Clear
4:35 AM 24.8 °F - 19.4 °F 80% 30.39 in 10.0 mi Calm Calm - N/A   Clear
4:56 AM 23.0 °F - 15.8 °F 74% 30.39 in 10.0 mi Calm Calm - N/A   Clear
5:15 AM 21.2 °F - 17.6 °F 86% 30.39 in 10.0 mi Calm Calm - N/A   Clear
5:35 AM 21.2 °F - 17.6 °F 86% 30.40 in 10.0 mi Calm Calm - N/A   Clear
5:55 AM 23.0 °F 17.0 °F 17.6 °F 80% 30.41 in 10.0 mi ENE 4.6 mph - N/A   Clear
6:15 AM 23.0 °F - 17.6 °F 80% 30.41 in 10.0 mi Calm Calm - N/A   Clear
7:35 AM 19.4 °F - 15.8 °F 86% 30.43 in 10.0 mi Calm Calm - N/A   Clear
8:15 AM 21.2 °F - 17.6 °F 86% 30.44 in 10.0 mi Calm Calm - N/A   Clear
8:35 AM 24.8 °F - 19.4 °F 80% 30.44 in 10.0 mi Calm Calm - N/A   Clear
8:55 AM 26.6 °F - 21.2 °F 80% 30.44 in 10.0 mi Calm Calm - N/A   Clear
9:15 AM 28.4 °F 24.6 °F 19.4 °F 69% 30.44 in 10.0 mi ENE 3.5 mph - N/A   Clear
9:55 AM 33.8 °F - 23.0 °F 65% 30.44 in 10.0 mi Calm Calm - N/A   Clear
11:15 AM 46.4 °F 44.3 °F 21.2 °F 37% 30.41 in 10.0 mi South 4.6 mph - N/A   Clear
11:35 AM 46.4 °F 45.2 °F 17.6 °F 32% 30.40 in 10.0 mi SSE 3.5 mph - N/A   Clear
11:55 AM 48.2 °F - 17.6 °F 30% 30.39 in 10.0 mi ESE 4.6 mph - N/A   Clear
12:16 PM 50.0 °F - 17.6 °F 28% 30.39 in 10.0 mi SSE 5.8 mph - N/A   Clear
12:35 PM 51.8 °F - 15.8 °F 24% 30.39 in 10.0 mi West 5.8 mph - N/A   Clear
1:55 PM 53.6 °F - 14.0 °F 21% 30.34 in 10.0 mi ESE 5.8 mph - N/A   Clear
2:15 PM 53.6 °F - 14.0 °F 21% 30.33 in 10.0 mi SSW 8.1 mph - N/A   Clear
2:35 PM 55.4 °F - 12.2 °F 18% 30.33 in 10.0 mi South 3.5 mph - N/A   Clear
2:55 PM 55.4 °F - 12.2 °F 18% 30.32 in 10.0 mi NW 9.2 mph - N/A   Clear
3:15 PM 55.4 °F - 10.4 °F 17% 30.33 in 10.0 mi North 5.8 mph - N/A   Clear
3:35 PM 57.2 °F - 10.4 °F 16% 30.33 in 10.0 mi NW 8.1 mph 16.1 mph N/A   Clear
3:55 PM 57.2 °F - 8.6 °F 14% 30.32 in 10.0 mi NW 11.5 mph - N/A   Clear
4:15 PM 57.2 °F - 8.6 °F 14% 30.32 in 10.0 mi NNW 8.1 mph - N/A   Clear
4:35 PM 55.4 °F - 8.6 °F 15% 30.32 in 10.0 mi NW 6.9 mph - N/A   Clear
4:55 PM 55.4 °F - 17.6 °F 23% 30.32 in 10.0 mi SSW 12.7 mph 16.1 mph N/A   Clear
5:15 PM 53.6 °F - 17.6 °F 24% 30.32 in 10.0 mi SW 15.0 mph 19.6 mph N/A   Clear
5:55 PM 53.6 °F - 15.8 °F 22% 30.33 in 10.0 mi SW 9.2 mph - N/A   Clear
6:15 PM 51.8 °F - 15.8 °F 24% 30.34 in 10.0 mi SW 6.9 mph - N/A   Clear
7:15 PM 48.2 °F - 17.6 °F 30% 30.36 in 10.0 mi South 4.6 mph - N/A   Clear
7:35 PM 44.6 °F 42.2 °F 17.6 °F 34% 30.37 in 10.0 mi East 4.6 mph - N/A   Clear
8:55 PM 39.2 °F 37.0 °F 17.6 °F 42% 30.38 in 10.0 mi South 3.5 mph - N/A   Clear
9:15 PM 37.4 °F - 17.6 °F 45% 30.38 in 10.0 mi Calm Calm - N/A   Clear
9:35 PM 37.4 °F 32.1 °F 15.8 °F 41% 30.38 in 10.0 mi SE 6.9 mph - N/A   Clear
9:55 PM 35.6 °F - 17.6 °F 48% 30.39 in 10.0 mi Calm Calm - N/A   Clear
10:15 PM 35.6 °F 32.8 °F 17.6 °F 48% 30.39 in 10.0 mi South 3.5 mph - N/A   Clear
10:35 PM 33.8 °F - 17.6 °F 52% 30.39 in 10.0 mi Calm Calm - N/A   Clear
11:15 PM 32.0 °F 26.4 °F 15.8 °F 51% 30.39 in 10.0 mi North 5.8 mph - N/A   Clear
11:35 PM 30.2 °F - 15.8 °F 55% 30.39 in 10.0 mi Calm Calm - N/A   Clear
11:55 PM 30.2 °F - 15.8 °F 55% 30.38 in 10.0 mi Calm Calm - N/A   Clear